Change the Weather History Date:

Monday, May 20, 2013

  Actual Average Record
Temperature  
Mean Temperature 54 °F -  
Max Temperature 69 °F 63 °F 73 °F (2011)
Min Temperature 39 °F 42 °F 39 °F (2001)
Degree Days  
Heating Degree Days 11    
Growing Degree Days 4 (Base 50)    
Moisture  
Dew Point 42 °F    
Average Humidity 65    
Maximum Humidity 100    
Minimum Humidity 37    
Precipitation  
Precipitation 0.00 in - - ()
Sea Level Pressure  
Sea Level Pressure 30.15 in    
Wind  
Wind Speed 3 mph (ESE)    
Max Wind Speed 8 mph    
Max Gust Speed -    
Visibility 10 miles    
Events      
Averages and records for this station are not official NWS values.
T = Trace of Precipitation, MM = Missing Value Source: NWS Daily Summary

Daily Weather History Graph

Daily Weather History Graph

Search for Another Location

Airport or City:

Trip Planner

Search our weather history database for the weather conditions in past years. The results will help you decide how hot, cold, wet, or windy it might be!

Date:

Astronomy

May. 20, 2013 Rise Set
Actual Time 5:06 AM PDT 8:28 PM PDT
Civil Twilight 4:29 AM PDT 9:05 PM PDT
Nautical Twilight 3:40 AM PDT 9:55 PM PDT
Astronomical Twilight 2:36 AM PDT 10:59 PM PDT
Moon 3:21 PM PDT (5/20) 2:25 AM PDT (5/20)
Length of Visible Light 16h 36m
Length of Day
15h 21m
Waxing Gibbous, 76% of the Moon is Illuminated
May 20
Waxing Gibbous
May 24
Full
May 31
Last Quarter
Jun 8
New
Jun 16
First Quarter

Hourly Weather History & Observations

Time (PDT) Temp. Windchill Dew Point Humidity Pressure Visibility Wind Dir Wind Speed Gust Speed Precip Events Conditions
12:58 AM 49.1 °F - 43.0 °F 79% 30.25 in 10.0 mi Calm Calm - N/A   Clear
1:58 AM 49.6 °F - 43.3 °F 79% 30.24 in 10.0 mi Calm Calm - N/A   Clear
2:58 AM 47.8 °F - 42.4 °F 82% 30.25 in 10.0 mi SSW 2.3 mph - N/A   Clear
3:58 AM 43.7 °F 39.7 °F 40.8 °F 90% 30.26 in 10.0 mi North 6.9 mph - N/A   Clear
3:59 AM 42.8 °F 38.6 °F 39.2 °F 87% 30.24 in 10.0 mi North 6.9 mph - N/A   Clear
4:17 AM 41.0 °F 39.0 °F 41.0 °F 100% 30.24 in 10.0 mi North 3.5 mph - N/A   Clear
4:58 AM 41.9 °F 39.0 °F 40.6 °F 95% 30.27 in 10.0 mi East 4.6 mph - 0.00 in   Clear
5:09 AM 39.2 °F 35.0 °F 39.2 °F 100% 30.25 in 10.0 mi East 5.8 mph - N/A   Clear
5:21 AM 39.2 °F 37.0 °F 39.2 °F 100% 30.25 in 10.0 mi ESE 3.5 mph - N/A   Clear
5:58 AM 43.7 °F - 41.5 °F 92% 30.27 in 10.0 mi NNE 1.2 mph - 0.00 in   Clear
6:58 AM 48.2 °F - 44.6 °F 87% 30.27 in 10.0 mi East 3.5 mph - N/A   Clear
7:58 AM 52.2 °F - 42.6 °F 70% 30.27 in 10.0 mi ESE 5.8 mph - N/A   Clear
8:58 AM 56.3 °F - 43.9 °F 63% 30.25 in 10.0 mi ESE 8.1 mph - N/A   Clear
9:58 AM 59.0 °F - 44.6 °F 59% 30.24 in 10.0 mi SSE 5.8 mph - N/A   Clear
10:58 AM 62.4 °F - 44.4 °F 52% 30.22 in 10.0 mi Variable 5.8 mph - N/A   Clear
11:58 AM 65.3 °F - 44.2 °F 46% 30.21 in 10.0 mi SSE 3.5 mph - N/A   Clear
12:58 PM 66.6 °F - 43.7 °F 44% 30.18 in 10.0 mi Variable 2.3 mph - N/A   Clear
1:58 PM 66.2 °F - 42.8 °F 43% 30.15 in 10.0 mi SW 5.8 mph - N/A   Partly Cloudy
2:58 PM 67.5 °F - 41.4 °F 39% 30.13 in 10.0 mi South 8.1 mph - N/A   Partly Cloudy
3:58 PM 68.7 °F - 41.2 °F 37% 30.11 in 10.0 mi WSW 1.2 mph - N/A   Clear
4:58 PM 69.3 °F - 41.5 °F 37% 30.07 in 10.0 mi SE 6.9 mph - N/A   Clear
5:58 PM 68.4 °F - 41.0 °F 37% 30.03 in 10.0 mi SE 4.6 mph - N/A   Partly Cloudy
6:58 PM 67.8 °F - 42.1 °F 39% 30.00 in 10.0 mi SE 5.8 mph - N/A   Clear
7:58 PM 64.9 °F - 42.6 °F 44% 29.98 in 10.0 mi East 2.3 mph - N/A   Clear
8:58 PM 63.0 °F - 42.3 °F 47% 29.94 in 10.0 mi ENE 2.3 mph - N/A   Clear
9:58 PM 59.9 °F - 42.4 °F 52% 29.94 in 10.0 mi ENE 3.5 mph - N/A   Clear
10:58 PM 55.6 °F - 43.2 °F 63% 29.91 in 10.0 mi NE 8.1 mph - N/A   Clear
11:58 PM 53.8 °F - 43.3 °F 68% 29.88 in 10.0 mi East 2.3 mph - N/A   Partly Cloudy